Theta_e
355 356 355 356 356 357 356 356 356 357 357 357 358 358 357 357 358 357 357 357 356 356 356 356 356 356 355 354 354 352 352 351 351 350 351 352 350 352 352 352 352 352 351 352 352 352 352 351 350 350 350 349 349 348 347 346 346 346 346 346 346 345 344 344 343 343 343 343 343 343 343 344 344 343 342 342 342 341 342 342 342 338 339 343 342
355 356 353 356 356 356 356 356 356 356 356 357 357 357 357 357 357 357 356 356 356 356 356 356 356 355 355 354 353 352 352 351 351 350 351 351 352 351 352 352 351 350 350 351 352 352 351 350 350 349 348 347 348 347 347 347 347 346 345 345 344 344 343 344 344 344 344 344 344 343 342 341 342 342 341 340 342 342 341 343 345 339 338 341 341
357 356 354 355 356 355 355 355 355 355 356 356 356 356 356 356 356 356 356 356 355 355 355 355 355 355 354 353 353 352 351 351 350 350 350 351 351 351 352 351 351 349 349 349 350 350 350 350 349 348 347 347 347 347 347 347 346 346 345 344 343 344 344 345 344 344 343 343 342 343 342 341 341 341 340 340 341 341 341 341 340 339 335 340 341
355 355 354 356 355 356 355 356 355 355 355 355 355 356 356 356 356 356 356 356 355 355 355 355 354 354 353 353 353 352 351 351 351 350 350 350 350 351 350 350 349 349 350 350 350 350 350 349 349 347 346 347 347 347 347 347 346 346 345 345 345 345 345 344 344 343 343 343 342 342 341 340 339 342 342 341 341 340 340 339 339 340 339 339 341
355 355 353 352 353 354 354 355 355 354 354 355 355 355 355 355 355 355 355 355 355 354 354 354 354 353 353 352 352 352 351 350 350 350 350 350 349 350 350 350 349 349 348 350 350 349 349 348 347 345 346 347 346 348 348 348 346 345 346 346 346 344 343 343 343 342 342 343 344 347 344 341 340 340 341 341 341 340 339 339 339 338 339 341 340
355 354 351 351 350 354 354 354 354 354 354 354 354 355 354 354 354 355 355 354 354 354 354 353 353 353 352 352 351 350 351 351 350 351 350 349 349 349 350 350 349 349 349 348 349 349 347 346 345 344 346 346 346 349 348 348 349 348 347 347 345 344 344 342 342 342 343 343 345 346 344 343 340 338 339 340 340 339 339 339 339 339 339 339 339
355 354 352 350 349 353 353 354 353 354 354 354 354 354 354 354 354 354 354 354 353 353 353 353 352 352 352 351 351 351 351 351 350 351 349 350 350 350 350 351 350 350 348 347 347 347 345 345 344 344 344 346 347 347 346 347 347 347 347 346 345 344 343 343 342 343 343 344 346 348 345 343 341 339 340 339 339 339 338 338 339 339 339 339 339
354 355 354 352 350 353 353 354 354 354 354 354 354 353 353 354 354 354 354 353 353 353 353 353 352 352 352 352 352 351 351 350 350 351 351 351 351 350 349 347 348 347 346 346 345 345 345 345 345 344 345 345 346 346 345 345 345 346 346 345 344 343 343 342 342 344 343 343 343 347 345 344 341 338 340 341 341 340 339 338 338 339 339 340 340
353 355 354 353 352 353 353 353 353 354 354 354 354 353 353 354 353 354 354 353 353 353 353 353 353 353 352 352 352 351 351 350 350 350 351 351 350 351 350 350 348 347 346 346 345 348 345 345 345 345 345 346 345 344 344 345 345 345 344 344 343 343 342 342 343 343 341 346 344 344 344 342 342 341 340 339 337 337 337 337 338 338 338 338 339
353 355 355 354 352 353 353 352 353 353 353 354 353 353 353 353 353 353 353 353 353 353 353 353 352 352 352 352 352 351 351 350 349 350 350 350 350 350 349 349 348 348 347 346 347 347 346 345 347 345 344 345 344 345 344 344 344 344 343 343 342 341 341 342 342 343 343 344 343 344 344 346 341 339 339 339 340 339 339 340 340 339 338 337 337
354 354 354 352 354 352 352 352 353 353 353 353 353 352 353 353 352 353 353 353 353 353 352 352 352 352 352 352 352 352 351 350 350 350 350 350 349 349 349 348 348 347 346 346 346 345 347 347 346 345 345 345 345 344 344 343 343 343 343 343 342 340 341 340 342 341 344 342 343 342 342 344 340 338 338 337 337 338 338 338 339 339 339 337 337
352 356 356 354 354 351 352 352 353 352 353 353 353 352 352 352 352 352 352 353 353 352 352 352 352 352 351 352 352 351 351 350 350 350 350 350 349 348 347 347 347 346 346 345 345 345 346 345 345 345 345 344 343 344 343 343 343 343 342 341 340 340 341 340 340 342 342 342 341 342 341 340 338 338 337 336 336 338 337 337 337 337 337 337 337
349 354 357 354 353 351 351 352 352 352 352 352 352 353 352 352 353 352 353 353 352 352 352 352 352 352 352 351 352 351 351 350 350 350 350 349 348 348 347 347 346 346 346 345 345 345 345 345 345 345 344 343 342 343 343 343 343 342 341 340 339 340 341 339 340 341 341 341 341 342 340 340 339 338 337 337 337 336 336 337 336 336 336 337 337
347 352 354 352 353 353 351 352 352 352 352 352 352 352 352 352 353 352 352 351 352 352 353 353 352 352 352 352 351 351 351 351 350 350 350 349 348 348 347 347 346 345 345 344 344 345 346 346 344 344 343 342 341 342 343 342 343 342 341 340 339 340 341 341 343 339 340 340 343 340 341 340 338 338 338 338 337 336 336 336 336 336 336 336 336
348 348 350 351 353 353 353 351 352 353 352 352 352 352 352 352 352 351 351 351 352 352 352 352 352 352 352 351 351 351 351 351 350 349 349 348 348 347 347 347 346 345 344 344 345 345 344 344 344 344 343 341 341 341 343 343 343 343 341 341 339 340 340 340 339 340 339 339 337 339 339 338 340 339 338 337 336 335 335 335 335 336 336 336 336
349 347 348 350 351 353 352 353 350 350 351 351 351 352 351 351 352 351 351 352 352 351 352 351 351 351 351 351 350 350 350 350 350 348 349 348 348 347 346 346 346 345 345 344 345 345 344 344 344 344 342 340 341 342 343 344 344 343 342 341 341 340 340 342 342 340 339 337 340 341 338 339 341 338 338 337 336 335 335 335 335 335 335 335 335
349 348 347 346 350 350 352 351 351 347 346 348 348 349 349 351 351 351 351 351 351 352 351 351 350 351 350 350 349 349 348 349 349 348 348 347 347 347 347 346 346 345 344 344 344 344 344 344 343 344 342 340 339 341 342 344 344 343 342 341 340 340 342 341 340 340 339 339 337 340 338 338 340 338 337 336 336 335 334 335 335 335 335 335 335
347 348 346 346 347 348 352 350 349 350 351 346 343 343 344 349 350 351 351 351 351 350 349 350 349 348 347 346 345 346 348 349 349 349 345 348 348 347 347 346 346 346 345 345 345 344 343 344 343 344 342 340 338 340 341 343 344 343 342 341 340 341 342 342 342 340 340 338 339 340 341 340 338 337 337 336 336 334 334 335 334 334 334 334 334
348 349 347 348 344 347 349 350 350 349 351 351 349 346 342 346 348 350 350 349 349 348 349 349 348 346 347 344 344 346 346 346 348 348 349 348 348 347 348 347 346 346 346 345 344 344 344 344 343 343 341 340 339 339 340 341 342 343 342 341 341 340 342 343 342 339 333 342 341 340 338 340 337 337 336 337 335 334 334 333 333 334 333 334 334
347 347 346 347 347 347 349 349 348 349 350 350 349 349 345 345 347 348 348 348 347 348 346 346 346 346 345 345 342 347 345 347 346 348 347 347 346 345 347 346 345 345 346 345 345 344 344 345 344 341 341 340 340 339 339 339 339 341 342 342 341 341 342 343 343 338 339 339 340 338 339 338 337 336 337 336 335 334 333 333 333 333 333 333 333
345 347 347 347 348 347 343 346 348 349 349 350 351 349 347 345 345 346 347 347 347 347 346 344 342 344 345 345 343 347 350 350 348 346 346 348 345 346 344 343 344 345 345 344 345 344 344 344 342 342 341 339 339 340 340 338 339 338 341 342 341 342 341 341 338 338 338 332 340 337 339 337 336 336 336 336 335 334 333 332 333 332 333 333 333
342 344 345 345 347 349 346 346 348 349 349 350 351 350 348 346 348 348 348 348 346 346 348 350 345 349 345 348 347 346 346 346 349 346 348 346 346 346 344 344 344 344 344 344 344 344 344 343 342 341 340 339 338 335 337 339 339 338 340 342 342 342 343 342 340 337 337 337 339 338 338 337 336 337 335 335 334 333 332 332 332 332 332 332 332
338 341 342 344 339 345 345 345 347 349 351 350 351 350 348 348 346 347 348 346 347 346 345 349 348 346 344 347 346 349 345 345 348 346 346 343 347 346 345 344 345 344 344 344 344 344 343 342 341 340 339 339 334 333 335 335 335 340 342 341 342 342 342 342 337 338 336 339 337 339 338 337 338 336 335 335 335 334 333 332 332 332 331 331 331
338 338 337 342 344 341 343 346 347 347 349 348 345 348 351 348 348 346 348 347 348 345 348 347 346 343 346 343 347 344 343 346 343 343 345 345 344 344 344 345 344 345 344 344 344 343 342 341 340 340 340 334 334 333 334 333 334 336 338 340 340 340 342 342 338 338 338 336 336 339 338 338 337 336 335 335 335 333 333 332 331 331 332 331 331
338 338 339 340 340 342 341 341 347 347 347 349 351 347 349 348 348 348 346 346 346 348 349 347 347 346 345 343 341 344 342 343 342 343 344 345 344 346 344 343 343 342 344 340 342 344 342 338 338 336 335 335 334 335 334 333 335 336 337 338 338 341 342 342 339 338 338 338 339 338 339 338 337 336 336 335 334 334 334 332 331 330 331 331 331
339 336 337 339 340 341 339 337 339 345 344 347 348 347 346 349 345 347 348 348 347 347 346 347 345 344 344 345 342 344 344 341 341 343 344 345 343 342 339 340 339 339 340 336 337 344 343 338 337 335 335 335 336 337 335 335 334 335 334 336 338 339 340 340 340 339 340 340 339 340 339 339 338 338 337 336 334 334 334 332 332 331 330 331 330
337 336 338 339 338 338 338 340 338 339 341 343 344 347 346 347 346 344 345 344 345 345 346 344 345 345 345 344 344 343 341 340 339 338 340 342 342 342 341 340 341 340 338 334 338 338 337 338 339 337 335 335 334 336 336 335 336 332 333 333 337 336 339 339 340 338 340 340 340 340 341 339 339 338 338 336 334 334 335 333 332 332 330 330 330
336 337 337 335 338 336 338 336 338 339 340 338 338 338 345 343 343 344 346 344 345 343 344 345 347 345 347 343 344 342 340 342 338 337 337 339 339 340 341 338 339 341 341 338 338 341 339 335 337 339 335 335 333 334 335 334 335 335 332 333 335 336 338 339 341 341 340 341 338 341 341 341 340 341 337 337 336 335 335 333 333 332 330 329 329
332 336 336 334 333 336 335 335 336 337 338 339 338 340 340 341 343 343 341 343 342 341 342 345 347 346 342 344 343 344 341 339 337 337 340 337 342 341 339 342 340 341 342 341 339 338 336 335 335 335 336 335 334 334 334 334 336 335 334 332 333 333 335 338 340 340 339 339 338 339 341 341 341 340 340 337 337 336 335 334 333 332 331 331 329
335 336 334 334 333 333 333 334 334 335 336 337 339 338 339 338 340 342 346 345 346 343 344 342 343 342 343 346 345 343 341 339 340 339 339 340 342 341 340 340 343 342 345 340 340 336 334 334 335 335 333 333 333 333 332 334 333 334 333 333 333 333 336 335 336 336 337 338 340 339 341 341 341 340 340 339 337 337 336 334 334 333 332 332 330
336 335 334 333 336 331 332 332 333 338 332 332 335 338 338 336 336 339 341 342 345 345 344 344 343 343 343 344 344 345 345 344 344 342 342 338 338 343 342 343 341 342 343 340 338 336 337 335 336 334 334 332 330 331 331 331 332 332 332 331 331 334 334 335 335 334 334 336 338 340 339 341 340 340 340 340 341 337 337 336 334 334 332 332 332
334 335 334 336 332 332 330 333 335 338 337 334 334 335 336 334 337 337 339 343 347 345 342 343 342 340 341 342 343 342 344 344 344 343 342 340 341 335 340 340 342 345 342 343 343 338 338 335 334 335 333 334 330 331 333 330 330 329 331 329 330 332 333 334 334 335 335 335 336 339 340 338 340 339 340 340 340 340 338 337 336 334 335 332 333
335 336 335 335 335 335 334 334 335 335 334 335 335 335 336 335 336 337 344 346 345 345 343 343 339 342 341 342 341 342 342 342 344 344 343 341 342 341 340 340 341 344 343 342 339 338 338 335 334 334 332 331 332 331 330 332 331 331 330 328 330 329 331 332 334 335 333 333 334 336 341 339 338 339 338 340 339 340 340 339 337 336 336 334 333
334 336 337 334 337 337 336 338 335 331 337 336 334 334 335 336 337 338 343 345 344 342 342 345 343 343 341 341 343 341 342 345 344 345 343 341 341 341 341 340 341 343 345 343 338 336 337 337 332 330 329 329 329 331 328 328 329 330 331 331 331 332 332 331 332 332 334 334 334 335 335 338 339 338 337 341 339 338 339 340 338 337 337 336 334
333 336 335 335 338 338 339 339 339 336 336 336 330 336 336 333 333 335 337 338 338 339 344 341 339 342 343 343 344 343 343 343 344 344 343 341 339 340 341 341 342 342 342 342 338 336 338 338 332 329 330 329 329 329 329 329 329 328 331 333 331 331 333 331 331 330 332 335 336 335 336 335 336 339 337 337 339 338 337 339 340 338 337 337 335
334 334 335 335 336 340 342 340 338 339 338 338 340 340 336 336 334 332 336 336 332 334 335 338 340 340 340 342 343 342 342 342 342 344 343 343 339 339 341 342 341 341 340 342 340 336 335 337 336 332 330 327 329 330 331 329 330 330 332 334 334 334 332 332 332 330 332 334 333 335 336 336 337 336 340 340 339 338 337 337 338 340 339 337 337
336 335 335 337 336 340 339 338 336 339 340 340 340 340 337 335 335 335 331 332 330 330 333 335 336 341 341 339 342 343 342 342 344 343 343 343 340 340 340 342 341 340 339 341 338 336 336 334 339 336 335 330 329 329 329 332 333 333 334 335 334 334 334 333 333 333 331 332 332 332 334 334 335 336 338 337 340 340 337 337 337 337 338 339 339
337 335 337 337 336 338 336 339 338 340 340 339 340 337 336 334 332 332 334 329 331 331 332 332 333 332 334 335 338 341 342 342 342 342 342 343 341 341 340 341 340 339 341 338 335 336 336 335 335 336 335 335 336 334 333 335 333 333 333 334 335 337 334 334 332 334 331 330 331 332 333 334 335 335 335 337 336 339 341 337 337 335 336 336 338
338 337 339 337 337 337 338 340 338 340 340 340 340 338 336 335 329 328 326 328 331 332 331 330 331 333 333 334 335 336 341 341 341 341 342 340 340 341 340 341 341 337 333 330 333 334 335 337 334 339 341 340 335 334 335 334 331 332 331 334 332 333 336 336 334 333 330 330 330 331 330 334 335 335 336 336 335 337 341 339 337 337 337 335 336
341 339 338 338 338 339 341 339 339 338 339 339 336 331 331 328 326 328 327 329 330 328 331 329 331 330 332 332 333 334 332 335 335 335 336 336 338 340 340 340 339 336 332 332 331 333 333 333 333 332 338 336 336 333 334 333 331 334 335 335 335 335 336 335 334 333 333 333 332 333 331 331 334 335 334 335 336 335 336 340 339 337 337 336 335
341 342 339 338 339 337 339 338 340 338 335 333 330 328 327 326 326 326 324 325 326 328 329 330 330 329 331 330 331 331 332 332 331 331 332 333 334 335 338 340 339 333 332 328 332 332 334 335 335 333 336 335 334 337 337 334 334 331 334 334 336 336 335 335 334 333 333 334 335 333 333 333 333 333 335 335 334 335 335 336 338 338 338 339 335
338 340 338 338 338 338 338 338 338 336 334 333 330 330 328 325 323 325 324 322 321 324 324 328 328 330 330 330 331 330 330 330 328 329 331 330 331 331 332 332 335 333 333 331 331 332 333 333 335 332 335 333 333 335 335 334 329 327 325 326 330 335 334 333 332 331 336 332 337 335 336 334 333 335 336 335 335 334 334 335 336 335 335 335 337
338 337 338 339 338 337 337 338 337 334 333 333 331 328 327 328 327 324 324 324 327 329 327 327 329 325 327 327 327 329 330 328 328 328 328 329 328 329 331 332 332 334 333 332 331 331 332 332 332 329 330 331 331 333 335 334 329 330 329 324 323 321 329 331 332 331 332 333 335 334 333 332 333 334 337 337 337 337 335 335 335 336 337 336 336
336 336 337 338 338 336 337 338 336 333 332 333 331 331 330 330 329 328 326 326 326 329 328 328 326 325 325 327 327 329 329 329 328 327 327 328 329 329 329 330 331 332 333 331 331 332 333 332 331 330 328 324 326 328 330 332 331 329 322 322 322 320 317 320 326 332 333 331 332 333 335 332 333 333 333 334 335 338 338 337 335 336 336 337 336
334 334 337 336 337 335 336 338 335 332 333 331 332 331 329 330 329 330 330 326 325 324 325 323 325 325 326 327 327 329 329 328 328 327 326 326 327 327 328 329 329 330 329 328 331 330 331 330 330 331 329 326 325 327 329 330 329 332 329 323 319 317 318 323 326 327 332 331 330 332 332 332 333 334 332 334 333 334 336 337 338 337 339 337 338
333 335 337 337 337 335 335 337 334 333 332 331 333 331 325 325 323 320 318 319 319 320 320 320 320 323 321 327 328 327 327 327 327 327 326 325 326 326 327 326 326 327 326 327 327 327 328 330 331 332 332 331 328 326 326 330 330 331 330 331 326 321 321 323 322 316 330 331 331 331 331 332 332 332 333 333 334 335 333 333 338 340 338 337 337
333 336 337 337 337 335 335 336 334 332 332 331 333 327 324 324 322 321 319 320 319 321 323 324 324 322 326 326 325 328 327 328 328 327 326 326 326 325 325 325 325 325 325 326 324 326 323 326 329 330 330 329 330 327 324 326 330 329 328 331 330 330 330 324 318 319 317 327 332 330 331 334 334 333 334 334 332 332 336 336 333 335 338 339 339
333 334 337 337 336 334 335 335 333 332 334 331 331 328 326 324 323 323 322 320 320 322 323 325 325 324 323 325 325 325 327 327 327 326 327 326 326 325 325 325 323 324 323 323 324 325 325 325 327 328 328 328 328 325 323 326 326 323 329 328 329 329 329 328 327 324 319 316 323 331 330 329 332 334 334 334 333 337 339 338 333 337 334 337 340
332 334 335 336 336 334 335 336 333 333 332 332 330 327 326 325 324 323 320 322 323 322 323 323 322 324 324 324 325 324 326 327 327 327 326 326 326 326 325 324 323 322 321 321 323 324 325 326 326 326 325 326 326 325 326 323 323 323 323 325 324 325 325 327 327 326 320 315 317 319 322 327 330 333 335 337 333 337 337 338 336 335 338 337 338
333 334 335 335 334 333 334 333 332 332 333 331 330 327 327 326 323 324 321 321 322 320 322 321 323 324 323 324 324 324 324 325 327 325 325 322 321 321 320 319 320 318 318 318 318 319 321 322 323 324 324 324 325 325 324 322 322 323 322 322 320 320 321 321 323 322 320 321 316 315 318 321 320 325 331 332 332 331 330 333 335 333 334 337 337
333 333 334 334 333 332 334 332 332 331 333 331 329 328 327 326 324 324 322 323 322 321 321 321 322 323 322 322 322 323 324 324 324 324 321 320 320 319 319 318 319 320 319 318 319 318 320 321 322 323 324 324 322 322 322 321 321 320 321 320 319 319 319 317 318 318 318 315 315 315 317 316 316 317 323 324 325 323 326 329 329 328 329 330 332
Wind_Speed
12 16 15 16 15 14 14 14 14 14 13 13 13 13 14 14 14 14 14 15 15 15 14 13 13 12 12 13 14 13 12 10 9 9 9 9 10 8 7 7 6 7 8 10 11 11 10 10 9 9 9 9 10 9 9 10 10 11 10 11 12 12 13 12 12 13 13 13 13 13 13 13 12 12 12 11 10 8 11 11 9 9 10 11 11
15 16 14 15 14 14 14 14 14 14 14 14 14 13 14 14 14 14 14 14 14 14 13 13 13 12 12 13 13 12 12 11 9 9 8 9 9 8 8 7 7 6 7 9 10 11 10 9 10 9 9 9 9 9 9 9 10 10 10 11 12 11 11 10 11 11 11 12 12 12 12 12 12 11 10 10 11 8 5 6 9 9 8 12 13
16 16 14 16 14 14 14 14 15 14 14 14 14 14 13 14 14 14 14 13 13 13 12 12 12 12 13 13 12 12 12 11 10 9 9 9 9 8 8 8 5 6 7 7 9 9 9 9 10 9 9 9 8 8 9 9 9 9 10 10 10 10 9 9 10 11 12 12 12 13 14 13 12 11 10 9 10 10 12 13 11 10 9 11 12
15 15 14 15 14 13 14 15 15 15 14 13 13 14 13 13 13 13 12 13 12 12 12 12 12 13 13 12 11 12 12 10 10 10 9 9 9 8 8 8 7 6 4 6 8 9 9 9 9 8 9 9 8 8 9 9 9 10 11 11 10 9 9 9 9 9 10 13 15 13 8 9 10 11 11 10 11 13 14 13 13 13 12 11 13
15 15 14 14 13 13 14 14 15 17 15 13 14 14 13 13 12 12 11 11 12 12 12 12 12 13 13 11 11 11 11 10 10 10 9 9 9 9 9 8 7 7 5 5 6 8 9 9 8 8 8 8 8 8 9 9 9 9 10 10 9 9 9 10 8 7 8 11 11 9 9 9 8 10 11 12 13 11 12 13 11 11 12 14 13
15 15 14 14 13 13 13 14 14 15 16 15 15 14 14 13 12 12 11 12 12 12 12 12 12 12 12 12 11 11 10 10 10 9 9 9 9 8 9 10 9 8 8 7 7 8 8 7 7 7 8 8 9 9 9 9 10 10 10 10 9 8 8 8 5 7 8 11 11 7 8 8 8 8 11 11 12 11 12 12 12 11 12 13 12
16 14 14 14 12 13 13 14 14 14 14 16 15 15 14 14 14 12 11 12 12 12 12 12 12 12 12 12 11 10 10 10 10 10 9 8 7 8 9 10 11 10 10 8 7 7 6 6 6 6 7 8 9 8 8 9 8 8 9 10 10 8 8 5 1 6 6 7 7 5 6 8 8 6 9 10 10 10 10 10 9 10 10 11 11
12 12 14 13 12 14 13 13 14 13 14 15 15 15 14 14 14 12 12 12 12 12 12 12 12 12 12 12 11 11 10 10 9 9 8 8 7 6 6 7 7 6 6 5 4 5 6 6 6 6 7 8 9 9 8 8 7 8 8 9 8 7 5 3 7 8 12 7 3 4 5 8 8 7 9 10 10 9 9 9 10 9 10 11 12
12 14 13 13 13 16 14 13 12 13 14 13 13 14 14 13 13 13 12 12 12 11 11 11 11 11 11 11 11 10 10 9 9 9 8 8 8 7 6 6 6 5 5 4 4 3 5 5 6 5 7 9 8 8 8 8 8 8 7 7 7 6 4 4 7 7 8 7 4 4 6 9 8 8 9 10 9 8 9 9 10 10 11 10 10
13 12 13 11 13 15 14 12 12 12 12 12 12 13 13 13 13 13 13 12 11 11 11 11 11 11 10 10 10 10 9 9 9 8 8 8 9 8 7 7 6 6 6 6 5 4 4 4 2 6 7 7 8 8 8 9 8 8 7 7 6 5 4 7 11 11 7 4 4 7 11 7 10 8 9 8 9 11 13 14 13 12 10 11 11
11 11 11 13 16 15 14 13 12 12 11 11 11 11 11 12 12 12 12 11 11 10 10 10 11 10 10 10 10 10 9 9 8 8 8 8 8 8 7 7 7 7 7 6 5 5 6 7 9 9 9 9 9 9 8 8 8 7 7 6 4 3 6 8 9 8 2 4 7 3 9 11 9 7 9 8 8 9 11 10 10 10 10 10 11
14 10 11 13 16 14 14 13 13 12 12 11 11 11 10 10 10 11 11 11 11 11 11 10 10 10 10 10 10 9 9 9 9 8 8 8 8 8 8 7 8 8 7 6 7 7 8 9 10 10 10 10 9 9 8 8 8 7 5 5 3 4 6 8 8 4 2 7 6 5 7 8 9 9 10 9 9 10 9 9 9 10 10 10 10
14 12 11 14 14 14 13 13 13 14 12 11 11 11 11 10 10 10 10 10 11 11 11 10 10 10 10 10 10 9 9 8 8 8 8 8 9 8 7 8 8 7 7 7 7 8 9 10 10 10 10 10 9 10 8 8 8 7 5 4 2 6 7 9 8 6 2 6 4 1 8 8 9 10 10 9 9 9 9 10 10 10 10 10 10
13 14 12 15 12 15 12 13 12 13 13 12 11 12 12 11 11 10 9 9 8 8 8 8 8 8 8 9 9 8 8 9 8 9 9 9 8 8 8 7 7 7 7 7 8 9 11 12 11 10 10 9 9 9 8 6 7 7 6 4 3 6 11 10 11 1 3 4 1 5 6 8 8 8 9 10 9 8 9 9 10 9 9 10 10
13 14 13 13 14 13 15 12 12 11 10 11 11 10 9 8 8 8 7 6 6 6 6 6 6 7 8 8 8 8 8 8 8 9 9 8 8 8 8 8 8 7 7 7 8 10 10 10 11 11 9 7 7 6 7 6 6 7 6 4 5 6 10 9 6 4 2 2 4 6 10 9 8 7 9 9 7 8 8 9 9 9 10 9 9
12 12 13 13 15 14 13 14 12 10 11 11 10 9 9 8 8 8 7 6 7 7 7 7 6 6 7 7 8 7 8 8 8 8 9 8 8 7 7 7 8 8 7 7 8 10 10 10 11 11 9 6 5 4 4 6 8 8 6 4 4 6 8 11 9 3 2 3 2 4 7 8 9 9 9 9 8 8 8 8 9 9 9 9 9
11 12 12 14 15 14 14 13 12 12 7 8 8 7 5 8 8 8 7 7 7 7 7 7 6 6 7 6 7 7 7 7 7 7 9 8 8 8 8 7 8 8 8 8 9 9 9 10 11 10 10 7 5 4 3 3 5 9 8 5 4 6 8 10 9 2 2 4 2 6 7 8 7 10 9 9 9 8 8 8 8 9 9 9 9
12 10 12 12 13 13 13 12 13 10 7 9 8 5 5 5 7 7 7 7 6 7 6 5 5 5 5 4 3 5 6 7 6 6 7 6 6 8 8 7 8 8 9 9 10 9 9 10 9 8 9 8 5 4 3 1 3 6 8 6 4 7 10 10 9 3 4 4 3 5 8 11 9 7 8 8 8 9 8 7 8 8 8 9 8
9 12 8 11 11 13 15 14 12 9 7 7 7 5 4 4 4 6 7 7 5 6 6 5 6 5 3 6 4 5 5 4 5 5 5 7 6 7 5 6 8 8 9 10 10 10 11 11 10 9 8 8 7 5 4 3 1 3 6 6 5 8 9 9 8 5 4 2 2 10 8 11 6 7 8 9 8 7 8 7 7 7 8 8 8
9 8 10 9 10 11 11 12 11 10 8 8 8 7 7 5 4 6 7 7 7 6 6 4 3 3 4 6 2 3 5 6 6 6 4 6 8 6 5 6 7 8 9 9 10 10 11 11 10 9 9 8 8 6 3 3 3 2 5 6 7 8 6 6 9 4 3 4 4 8 12 9 7 7 8 8 8 7 7 7 7 7 7 8 7
7 8 7 7 8 10 13 9 9 11 9 9 7 8 7 7 6 6 7 7 7 7 6 5 4 4 4 7 6 3 3 4 5 5 5 5 4 4 8 7 6 8 9 9 11 11 12 11 10 10 9 9 8 6 4 2 2 3 5 7 7 6 5 4 2 1 2 3 6 8 12 10 6 7 8 8 8 7 7 7 6 6 7 7 7
7 6 7 7 7 5 16 10 8 9 9 8 6 7 8 8 8 7 6 6 7 8 5 4 6 5 5 5 5 4 2 4 4 4 5 4 4 7 7 7 8 8 8 9 10 11 11 10 10 10 9 8 9 5 5 4 4 4 6 7 7 6 4 2 4 3 1 3 8 10 11 8 6 7 7 8 7 6 6 6 5 6 6 6 7
8 7 5 10 9 10 11 12 10 9 9 7 6 7 9 7 7 5 5 5 7 7 6 6 5 4 7 5 6 4 4 1 0 4 3 4 2 7 8 9 9 10 9 8 10 11 10 9 10 10 9 9 7 5 5 5 5 7 6 7 6 5 2 3 5 2 3 8 7 12 10 6 6 7 7 7 8 7 5 5 5 5 6 6 6
8 7 8 5 6 9 13 13 12 10 8 7 6 6 6 7 7 7 6 7 6 6 7 6 5 7 5 3 2 3 3 4 3 7 5 6 4 5 7 9 9 11 11 9 10 10 10 10 10 10 8 8 7 6 6 4 4 5 5 6 6 4 4 3 4 3 4 9 9 12 9 6 5 6 6 7 7 7 6 5 5 5 6 5 5
7 7 6 6 5 5 8 12 12 9 6 6 6 5 6 5 5 6 7 7 6 5 3 3 3 3 2 2 4 2 1 2 3 4 4 3 4 6 7 8 7 8 12 8 8 8 9 8 7 8 7 7 7 5 5 5 4 5 5 4 4 3 4 4 4 2 3 9 10 12 8 4 6 6 7 7 7 7 6 6 4 4 4 4 5
7 6 6 7 6 5 6 7 10 14 10 5 5 7 6 4 4 2 3 3 5 5 5 5 5 4 4 3 2 1 3 2 2 2 2 4 6 6 8 7 7 7 8 8 7 7 7 7 8 8 8 7 6 5 5 3 4 3 5 4 4 4 5 4 3 4 5 8 10 15 8 4 3 7 7 8 6 6 7 6 5 4 3 2 4
6 6 6 5 6 7 5 5 5 8 11 11 9 6 5 4 4 5 4 4 5 6 5 7 6 4 4 4 3 2 1 4 3 3 6 4 5 6 6 5 6 5 9 8 6 8 7 6 6 7 6 5 6 6 6 5 4 5 5 4 4 5 4 4 3 3 3 8 10 15 9 8 1 4 7 7 6 6 6 6 6 5 3 3 3
6 7 6 7 6 7 7 6 6 5 3 5 8 9 7 6 5 3 5 5 5 6 5 4 4 4 5 5 5 3 4 4 4 4 7 7 7 7 7 6 7 7 6 6 5 3 3 6 6 5 6 5 6 7 6 6 5 5 5 5 4 4 4 3 4 2 3 7 8 12 12 8 6 3 5 7 7 6 7 6 6 6 5 4 3
8 7 6 7 7 6 6 6 7 4 5 2 4 2 6 7 7 9 7 7 6 5 6 6 5 6 6 5 6 4 2 3 7 8 7 9 6 6 7 5 6 3 5 3 2 2 6 5 4 5 4 5 5 6 6 6 5 5 6 5 5 5 4 4 3 4 4 5 7 10 13 10 8 5 3 7 7 7 6 6 6 6 6 5 4
7 7 6 5 6 7 7 7 5 5 6 2 2 2 2 2 4 3 2 5 4 6 7 6 5 5 6 5 5 4 5 6 6 5 6 4 7 6 5 5 6 7 5 3 5 7 5 4 4 4 5 5 5 5 5 6 6 5 7 6 5 5 4 5 5 5 5 3 6 8 13 12 9 7 4 4 7 8 7 6 6 6 6 6 6
9 8 6 5 6 7 7 7 7 4 4 3 1 3 1 2 3 3 3 2 1 2 3 2 4 3 4 4 5 4 5 6 4 5 4 1 7 4 3 2 4 4 0 4 1 4 4 3 3 4 5 4 5 5 6 7 6 6 7 8 7 6 6 6 6 6 6 6 7 8 11 13 11 9 8 5 3 6 9 7 6 7 6 7 6
9 8 6 7 6 5 8 7 8 3 1 5 2 1 2 2 1 2 3 2 2 1 1 2 2 6 5 2 3 3 4 4 4 5 5 5 2 4 5 3 5 1 1 4 5 3 3 3 5 7 3 3 4 4 5 6 7 8 9 8 7 6 6 5 6 6 6 5 6 8 8 9 13 12 9 9 6 5 6 9 8 7 8 6 6
8 8 8 8 6 5 7 7 8 4 1 2 3 1 1 2 1 1 2 2 1 1 0 3 7 3 5 4 2 3 2 3 3 4 3 3 3 4 4 5 5 3 4 3 3 1 2 2 3 2 5 7 5 5 5 6 7 7 7 8 7 7 7 7 7 6 7 6 5 6 9 9 10 13 13 9 9 8 7 7 10 9 8 8 7
9 7 9 9 6 5 5 5 6 6 2 3 1 1 2 3 0 2 2 1 1 1 1 1 5 4 5 6 4 4 4 3 3 3 4 4 4 5 6 4 5 6 4 4 4 3 2 2 2 3 4 5 6 6 6 6 7 7 6 7 6 6 6 7 7 7 6 6 5 4 5 9 9 9 9 13 11 9 8 7 9 10 10 9 7
9 9 10 10 7 6 5 4 4 5 3 5 1 3 1 2 1 3 3 1 1 1 4 3 2 3 4 6 5 4 4 4 3 3 3 4 5 6 5 5 5 5 6 4 4 4 3 2 4 5 5 5 6 6 7 7 7 8 5 5 6 5 6 6 7 8 7 5 5 5 4 4 7 9 8 8 11 11 10 9 10 10 10 11 9
11 11 10 10 9 8 6 6 4 5 3 4 3 3 3 1 3 2 2 2 1 3 2 1 1 3 3 4 5 5 4 4 4 4 4 4 4 3 3 4 5 5 6 4 4 4 4 3 6 7 5 7 7 7 6 7 7 6 5 6 5 5 5 5 5 6 6 6 7 5 4 5 4 6 9 8 8 11 14 12 11 10 10 11 12
11 11 11 10 9 9 7 6 6 5 4 4 4 4 2 3 2 3 2 1 0 0 3 5 4 0 1 3 4 3 3 3 2 2 1 3 3 3 3 3 5 5 5 4 3 4 4 5 3 5 5 5 6 7 7 3 2 3 5 5 5 5 6 5 6 5 6 7 7 7 6 6 6 5 4 5 8 9 15 15 13 12 10 10 11
10 11 11 9 9 9 7 6 6 5 4 4 4 4 3 3 2 3 4 3 2 3 3 2 2 3 2 2 2 2 3 3 2 1 1 1 1 2 3 4 4 4 3 3 3 5 4 6 5 6 5 4 2 5 7 4 1 3 6 5 3 3 3 5 6 5 6 8 7 6 7 6 6 6 6 6 7 7 10 14 16 14 13 12 10
9 11 11 9 8 8 7 7 6 6 5 4 5 4 4 1 4 2 3 2 3 3 2 3 4 3 2 2 2 2 2 2 1 1 1 2 2 2 3 3 3 1 0 1 5 5 3 4 6 4 2 2 1 2 3 3 3 5 3 5 3 2 2 7 7 5 5 7 5 7 6 6 6 6 6 6 6 6 10 10 10 9 11 14 12
9 10 11 10 9 9 8 7 6 6 6 5 4 4 4 4 4 3 3 2 3 4 2 3 1 3 2 2 1 1 2 0 0 1 2 3 1 1 2 1 1 5 4 5 6 6 3 4 6 7 5 4 5 7 6 3 5 4 2 3 2 3 1 2 5 7 6 6 6 4 5 5 6 5 7 7 6 7 7 9 9 10 10 15 18
10 11 11 10 9 9 9 8 7 7 6 5 5 4 4 4 2 2 4 3 4 3 3 4 4 4 5 4 4 3 2 3 2 0 2 1 2 2 1 1 4 5 5 2 5 5 6 5 4 6 6 5 6 4 1 3 3 2 1 2 3 3 4 4 6 6 5 5 4 6 6 6 5 6 6 6 8 7 6 7 9 9 10 9 14
11 11 11 11 10 9 9 8 8 7 6 5 4 1 2 2 3 4 3 4 6 5 4 4 3 3 3 4 4 4 3 1 2 3 4 3 1 2 1 1 4 5 4 2 5 4 5 5 3 4 5 7 5 2 3 3 2 2 2 2 2 2 4 5 6 5 4 5 5 4 6 6 8 6 6 7 7 7 7 7 6 7 7 6 12
11 11 11 11 10 9 8 8 7 7 6 5 4 4 2 3 1 4 1 5 6 6 5 5 4 5 3 3 4 2 2 2 2 3 1 3 3 3 1 2 0 4 5 5 6 6 6 4 3 4 5 6 4 7 3 2 1 2 1 0 2 1 1 3 4 5 3 4 3 6 5 5 7 9 8 7 6 7 7 7 7 6 6 7 6
11 11 11 11 10 9 9 9 8 7 7 6 4 5 4 4 4 4 4 4 5 5 5 4 5 4 5 4 4 2 3 3 2 2 2 3 3 2 1 1 1 2 4 6 6 5 3 4 3 2 3 4 4 2 3 4 2 3 3 2 1 1 3 2 1 1 1 4 3 4 4 5 6 5 6 7 10 7 7 7 8 6 7 6 6
11 11 11 11 8 11 10 10 9 8 8 8 6 6 6 5 5 5 5 6 5 5 5 5 4 4 4 4 4 3 3 4 3 4 4 2 2 2 3 2 2 2 1 1 1 1 3 3 1 2 4 4 1 1 1 2 3 2 2 2 1 1 1 1 4 2 3 2 3 3 4 3 3 3 7 3 4 12 9 9 7 7 6 7 7
12 11 11 11 10 11 11 10 9 8 9 10 8 7 6 5 6 6 6 5 5 5 5 5 4 3 5 4 4 4 4 3 3 3 4 3 2 2 2 2 2 2 1 1 3 3 2 6 6 3 2 3 2 2 1 0 2 1 2 0 1 0 2 1 3 2 2 0 3 4 5 4 4 4 3 6 4 3 6 14 7 6 7 7 7
13 12 11 12 12 12 11 11 10 9 9 10 10 7 7 6 7 6 5 5 6 5 5 4 4 5 4 4 4 3 3 4 4 4 3 3 3 3 2 3 3 2 2 3 5 4 3 4 3 3 3 4 3 4 3 1 1 2 3 2 1 1 1 1 1 1 4 3 2 3 4 5 4 5 4 3 6 2 3 4 11 9 6 3 6
13 13 12 12 14 13 12 12 9 10 9 10 10 8 8 7 7 6 6 6 6 6 6 5 5 5 5 4 4 3 3 3 3 4 3 3 3 3 3 3 2 3 1 2 2 2 3 5 5 3 1 3 4 4 5 2 1 2 2 2 2 2 2 1 3 1 1 4 4 1 1 6 6 4 4 4 5 6 2 1 4 6 5 4 4
14 14 13 12 12 13 13 12 11 10 11 12 11 10 8 8 7 6 7 5 7 7 6 5 5 5 5 3 3 4 4 3 4 4 4 4 3 4 3 3 3 2 3 3 4 5 5 5 4 4 4 5 5 2 4 4 2 3 1 2 2 3 4 5 3 3 3 6 6 3 4 4 4 7 5 2 5 4 5 4 5 5 2 5 3
13 14 13 13 13 13 13 14 12 10 11 13 11 11 9 8 8 7 8 7 7 6 6 6 6 5 5 4 4 3 4 4 3 3 4 5 4 4 4 4 4 5 6 6 4 4 4 4 4 4 4 4 3 4 6 3 2 2 1 2 1 3 3 4 7 7 6 6 5 5 0 4 5 5 6 5 7 8 8 6 7 8 6 5 4
13 14 13 14 13 14 14 15 14 11 12 13 12 12 10 8 8 8 8 8 8 7 7 7 6 6 6 5 4 4 3 4 3 3 4 5 4 4 3 3 4 3 3 3 3 4 4 4 4 4 5 4 4 4 4 4 3 2 2 1 1 2 2 3 4 5 5 5 6 5 4 4 5 4 4 6 7 8 7 7 8 8 7 6 7
Wind_Direction
134 127 132 125 119 122 120 120 119 114 113 109 105 103 106 108 107 110 111 114 118 121 122 122 121 116 114 119 118 116 109 111 105 98 88 99 139 125 123 119 123 122 121 118 112 112 108 109 106 101 98 95 93 97 97 97 92 91 89 90 76 76 80 84 90 92 90 95 102 101 96 96 98 100 101 98 105 101 109 120 107 81 79 93 91
137 129 133 127 118 121 119 115 114 114 114 110 107 108 109 110 113 112 113 116 119 121 122 123 120 118 117 117 116 115 110 107 105 102 96 98 96 128 130 129 130 127 128 123 118 117 118 108 103 100 99 95 98 99 101 100 98 96 92 87 84 84 90 100 98 102 101 95 96 96 92 93 93 95 92 88 83 91 98 45 69 82 81 72 75
135 128 133 127 118 120 119 114 115 117 113 114 112 112 113 112 115 116 116 118 120 123 123 122 120 117 117 118 118 119 116 115 116 109 103 99 105 92 85 62 81 133 135 126 122 116 115 109 105 105 103 102 102 106 104 104 110 106 102 94 93 94 96 100 102 96 99 99 96 96 96 91 89 91 89 89 92 67 62 60 77 82 93 97 83
131 131 130 123 121 116 117 115 119 122 119 115 116 115 114 116 114 116 116 117 121 121 120 118 115 115 116 118 121 121 120 120 121 120 113 111 113 114 112 101 98 67 62 125 121 123 115 113 109 115 108 105 106 105 103 96 100 100 100 101 95 93 91 98 92 104 123 129 136 136 121 111 93 82 85 85 78 69 69 72 76 86 92 88 86
134 128 131 134 135 123 119 115 117 123 122 119 119 120 118 118 117 116 116 114 116 115 114 114 116 118 122 127 128 125 124 125 126 129 129 129 132 130 128 129 124 137 171 153 137 130 121 113 121 114 114 113 111 109 108 104 101 105 104 104 99 94 91 95 104 136 150 166 175 179 102 91 93 91 89 90 88 85 89 89 85 83 81 70 69
131 131 136 137 140 130 121 119 120 120 125 126 124 122 127 125 123 119 117 117 116 119 118 118 119 123 128 131 132 129 128 131 135 138 142 141 143 143 147 146 151 170 173 167 148 135 131 122 128 121 123 120 113 112 104 106 88 95 107 103 99 97 97 102 153 178 194 183 201 241 108 109 101 98 90 95 96 97 95 94 91 85 87 92 86
131 132 136 139 138 134 126 122 125 124 122 127 127 129 132 132 131 129 122 121 121 123 122 122 126 129 131 134 135 134 133 133 134 137 137 138 144 154 162 167 170 178 165 170 151 130 129 128 121 132 118 117 113 109 108 105 98 100 106 104 98 96 102 126 184 272 249 251 236 216 93 101 102 95 93 88 90 95 94 97 100 98 87 73 78
133 135 135 138 140 130 127 124 127 124 123 127 130 131 131 130 131 128 126 128 128 128 129 128 130 132 134 134 135 133 131 133 130 123 117 118 112 121 133 141 140 145 145 151 127 127 142 132 135 131 123 115 112 109 108 102 107 106 107 106 106 101 108 160 222 226 235 247 233 93 108 101 103 104 101 98 95 92 95 102 100 94 104 116 115
133 137 137 134 131 132 130 127 125 125 127 126 126 127 129 132 133 136 136 133 135 132 133 133 133 135 136 136 134 134 134 132 128 120 109 110 111 103 103 106 113 123 129 135 127 115 136 137 146 137 124 113 112 107 103 107 106 108 106 106 101 109 142 215 243 251 254 243 88 100 77 117 112 102 104 97 95 97 109 109 99 93 82 77 76
129 133 135 138 134 127 128 127 121 123 126 124 123 124 130 133 136 138 139 138 136 138 137 138 137 139 139 137 137 137 136 135 130 122 116 113 110 106 106 102 99 99 103 110 94 98 133 129 147 121 108 113 109 108 104 104 104 102 101 102 108 135 162 219 229 232 259 118 158 82 36 50 95 90 91 107 83 74 66 52 55 59 80 88 86
127 132 141 133 134 128 127 126 125 121 117 122 124 125 129 134 140 142 141 143 142 142 140 142 144 144 144 142 140 140 138 132 130 124 117 114 106 109 110 104 99 104 111 116 111 105 89 83 90 99 97 98 100 102 106 108 107 105 100 99 116 138 220 224 248 255 204 80 62 81 61 72 78 88 97 91 104 82 77 87 96 103 94 86 89
136 135 136 129 126 125 126 125 127 127 126 126 128 132 134 138 141 147 151 150 150 147 147 145 148 150 149 146 144 142 137 135 130 130 125 116 114 119 123 113 114 114 119 125 124 108 102 102 104 110 109 110 110 103 107 106 105 103 101 100 115 217 241 237 261 265 207 95 96 145 130 91 97 96 105 105 102 105 109 112 94 88 96 92 87
131 128 131 129 132 124 126 127 128 131 132 133 136 141 145 146 149 156 157 157 156 152 151 149 150 153 150 150 145 144 141 137 134 132 129 124 123 125 129 126 123 127 127 133 133 123 120 117 118 119 115 114 111 112 111 117 118 119 115 116 134 239 253 254 261 248 117 97 126 150 91 83 86 115 109 113 113 114 107 100 102 102 98 90 89
125 129 139 140 131 129 126 128 128 133 135 142 145 145 153 157 158 156 156 153 147 146 141 144 149 147 149 150 147 142 142 139 136 135 129 132 133 131 130 134 135 135 137 142 144 138 130 130 131 121 119 120 115 110 115 125 136 139 133 135 199 247 251 247 242 260 102 111 68 95 107 114 106 115 110 107 96 103 111 102 98 99 94 93 91
128 130 132 134 133 138 131 124 126 129 136 143 149 146 145 149 145 137 144 148 137 124 133 135 140 143 151 150 150 148 146 142 140 136 131 135 138 136 138 142 146 147 146 154 152 139 139 140 135 126 120 118 112 120 128 134 155 144 144 153 216 255 286 284 292 109 119 87 124 168 98 96 111 111 109 110 121 110 104 104 101 97 97 94 91
126 129 129 137 142 141 143 131 119 124 144 158 144 140 147 143 139 144 149 149 139 142 138 139 148 153 156 154 149 154 152 141 137 136 134 135 134 143 145 148 153 153 158 163 149 143 147 145 135 128 121 112 100 107 124 144 148 152 143 173 243 263 271 290 292 117 97 161 117 61 101 102 111 123 117 115 107 113 113 110 103 104 101 97 91
129 132 137 139 144 150 144 148 126 112 134 135 108 112 105 144 141 151 161 149 147 144 149 149 152 166 160 157 158 156 146 140 140 143 145 142 145 152 154 152 156 159 160 162 146 151 156 147 139 130 122 112 110 110 121 134 154 147 151 179 246 270 271 272 287 122 148 68 118 123 114 122 107 120 124 120 124 116 112 113 110 101 99 97 93
135 136 138 142 148 146 141 141 141 147 163 130 112 106 72 119 143 151 154 152 152 148 143 146 153 159 157 132 172 158 142 141 130 130 146 140 138 150 157 163 158 157 156 151 151 156 148 141 141 138 126 122 113 90 74 82 140 156 156 168 228 276 269 283 285 86 73 243 116 74 92 107 122 127 120 125 121 122 120 112 109 112 100 91 89
124 130 135 146 149 146 149 143 149 166 166 147 154 139 94 124 116 136 146 138 131 154 133 146 166 135 144 145 185 178 143 139 132 126 118 127 129 144 162 160 159 158 157 158 156 143 147 155 154 138 133 126 116 102 96 94 43 170 166 172 187 258 282 282 281 120 137 238 99 92 101 110 124 123 124 124 128 119 106 117 118 111 109 103 91
131 138 149 147 151 139 125 138 152 167 176 167 162 160 136 147 132 135 138 129 131 130 133 139 113 113 146 141 86 195 168 166 163 155 134 120 147 174 131 148 158 177 164 160 155 156 154 158 149 139 136 131 121 114 107 114 145 239 191 180 200 236 260 261 261 141 138 58 70 99 105 119 127 125 123 124 121 114 122 110 119 116 104 98 104
132 139 139 147 138 142 118 132 155 162 165 169 166 167 150 152 137 138 131 134 129 126 122 124 115 150 190 144 153 218 212 184 155 193 161 171 150 137 143 150 177 179 156 167 164 164 164 156 150 141 140 136 134 125 119 141 154 183 217 197 203 234 246 253 45 352 142 143 104 100 111 115 151 140 124 120 121 124 128 135 119 111 113 103 97
142 134 144 129 128 130 118 135 144 160 164 157 160 171 165 185 173 166 169 147 138 131 149 187 178 187 212 164 173 192 238 212 194 173 183 150 193 135 147 161 177 163 158 178 167 166 158 153 150 149 142 146 152 178 170 176 189 202 205 208 210 231 228 243 251 146 344 117 98 110 120 135 140 150 131 120 118 124 123 118 125 118 112 110 101
150 142 151 154 172 138 131 143 148 167 156 149 155 162 164 173 182 175 172 186 169 176 202 197 188 204 206 200 201 171 182 357 210 190 165 173 162 148 158 161 161 166 177 184 167 162 154 156 153 155 158 160 186 207 202 193 191 188 202 202 226 215 191 246 249 151 201 87 103 122 118 138 148 143 139 139 129 134 126 117 124 116 116 121 122
150 155 150 168 164 155 142 142 147 150 168 149 178 156 157 174 177 179 189 187 181 208 193 206 202 242 176 209 235 153 162 181 170 195 183 188 181 175 181 157 161 170 173 178 170 161 158 163 164 159 170 191 210 198 199 208 195 184 207 219 216 190 189 197 233 194 153 109 112 120 116 140 146 130 131 139 146 137 130 136 127 137 131 128 120
152 155 145 160 169 153 141 141 143 144 147 140 146 153 163 173 168 176 195 184 188 188 171 208 233 244 285 68 276 148 128 161 183 213 182 192 201 195 193 184 181 183 180 189 183 174 180 184 177 183 201 210 215 208 249 180 217 210 212 220 223 198 199 196 238 225 129 100 119 119 125 147 145 143 141 141 145 145 137 132 138 133 140 140 139
147 156 150 153 157 165 164 146 157 148 152 168 165 154 174 178 152 163 192 166 167 184 187 194 202 193 198 157 193 54 153 355 208 343 227 213 214 208 206 199 200 194 191 209 195 183 200 201 198 198 210 212 213 204 225 246 189 236 231 200 219 203 208 200 175 221 126 116 126 121 144 144 169 153 148 142 153 154 147 140 143 148 145 150 141
161 139 151 157 155 170 155 138 162 136 158 168 158 165 164 162 172 174 191 199 184 185 189 199 195 173 189 151 212 146 204 146 297 205 269 241 222 215 202 195 220 190 207 213 196 177 199 200 204 207 219 221 208 209 201 215 228 212 240 231 214 223 206 195 167 206 146 119 130 130 145 161 182 174 156 147 157 158 150 153 150 144 156 168 163
159 141 156 151 184 155 141 161 140 146 164 185 159 152 164 177 183 213 190 189 183 186 189 227 192 170 166 161 163 179 161 150 166 202 225 251 212 198 214 207 212 203 195 225 192 187 232 207 200 218 217 210 220 213 209 204 210 248 232 224 217 230 232 195 193 190 143 129 138 137 150 158 176 215 176 152 157 166 157 162 151 145 153 164 174
146 166 149 154 173 129 142 150 123 157 142 275 130 150 162 171 172 181 193 195 201 188 205 201 171 151 203 180 178 159 152 159 203 206 186 219 229 221 222 188 206 235 253 165 246 179 222 213 204 210 212 221 214 216 206 210 208 208 234 210 213 216 201 209 196 184 189 148 141 146 155 165 167 182 206 158 168 167 166 164 161 154 159 163 162
138 144 160 145 143 143 153 127 150 154 129 175 104 159 163 188 169 197 134 174 182 149 179 195 187 180 211 173 160 165 185 202 214 229 218 195 255 201 227 178 212 207 225 201 154 220 211 205 206 207 212 202 214 202 223 209 204 216 228 220 201 222 183 209 202 204 183 179 135 154 163 162 167 178 189 199 176 174 168 172 174 160 165 166 169
143 149 152 151 113 160 136 139 120 73 135 140 132 123 214 241 170 182 188 174 188 177 158 164 158 145 157 160 174 175 206 207 214 236 235 95 241 262 226 257 318 277 151 218 245 227 208 203 204 198 211 225 228 201 203 223 209 200 227 221 215 193 216 200 205 209 198 184 157 155 168 162 172 174 184 192 239 188 174 177 186 166 170 174 180
151 149 154 124 154 154 129 111 105 110 307 107 145 124 219 191 166 216 124 144 133 177 170 147 96 78 76 118 140 206 211 234 245 228 220 210 150 240 262 245 239 293 289 260 209 225 213 209 193 200 196 178 244 242 217 235 216 210 208 213 216 198 213 202 220 211 220 186 197 165 158 173 174 176 183 187 198 230 195 182 179 184 175 184 178
145 151 128 131 144 105 105 109 117 128 158 69 86 47 104 198 97 24 89 104 178 132 118 76 64 102 113 98 165 181 222 213 224 224 219 206 216 227 220 218 222 208 228 234 254 252 235 225 236 277 163 212 192 216 235 216 224 230 229 211 211 219 204 206 209 216 216 214 202 184 164 174 176 179 182 191 191 200 219 196 184 188 188 186 186
144 146 132 139 133 107 114 111 119 141 142 112 107 168 90 54 172 98 74 36 74 141 135 358 136 140 140 160 161 199 208 197 189 203 209 227 214 222 236 219 223 211 211 212 210 218 221 200 189 221 208 204 206 196 214 225 220 215 230 246 207 218 221 214 204 208 207 217 205 217 200 176 170 175 185 187 196 206 206 210 196 190 194 189 192
146 140 145 139 141 123 124 112 131 117 160 97 114 67 58 12 89 98 81 243 134 351 104 208 154 165 174 159 171 172 202 202 203 213 196 225 229 226 219 218 207 216 212 203 215 217 188 191 221 220 184 213 207 201 208 218 222 218 213 237 244 224 229 240 227 210 203 213 230 218 213 233 166 167 177 180 192 200 208 209 210 209 196 189 195
146 143 144 144 144 135 134 128 142 116 127 101 96 75 95 91 48 62 102 316 267 152 154 5 43 140 189 178 182 207 215 232 221 235 240 239 243 224 195 214 201 207 210 196 218 214 160 227 239 244 190 211 209 201 207 216 217 220 210 213 227 254 248 247 247 250 219 211 217 221 220 222 216 197 178 176 182 194 202 205 209 216 212 199 191
144 152 147 148 152 136 142 133 149 135 132 119 117 94 110 118 98 66 90 225 80 211 150 162 141 111 92 124 149 174 202 206 225 199 251 241 234 242 221 207 214 201 200 187 217 216 205 202 252 264 227 227 211 207 207 224 286 279 250 233 230 229 232 237 244 255 244 230 230 206 204 209 220 207 187 198 183 187 191 202 205 209 212 215 199
146 153 148 155 157 142 150 142 143 143 144 136 128 145 132 109 127 101 24 57 25 18 22 65 117 143 160 106 119 128 159 145 192 187 225 285 249 227 209 214 204 223 196 95 280 280 254 226 204 234 229 230 351 13 11 355 314 285 256 254 331 295 274 238 236 225 235 238 228 230 210 205 203 203 208 208 208 183 176 196 203 203 209 209 211
152 154 152 157 155 148 147 145 151 146 148 137 145 112 106 89 79 135 139 146 96 51 27 54 44 55 64 73 71 90 43 74 102 143 246 227 182 207 248 225 211 141 134 83 251 265 277 307 262 222 239 223 126 163 186 233 277 258 319 35 256 268 296 327 302 261 248 253 239 220 242 210 204 208 209 211 214 202 172 181 194 205 206 206 210
157 156 156 158 157 149 153 152 158 150 148 154 161 163 167 169 137 156 151 82 79 90 86 92 114 78 84 73 78 339 102 263 118 346 299 289 284 215 243 225 278 53 110 212 235 251 270 239 240 249 224 212 189 197 187 217 234 240 315 287 31 293 1 235 271 261 259 253 240 243 246 235 214 218 215 220 219 211 204 173 185 196 205 194 204
162 158 161 161 160 160 156 158 154 156 163 168 175 178 167 135 129 135 118 141 100 112 86 53 49 54 22 47 38 57 40 1 345 243 226 248 257 278 255 191 79 81 90 234 246 258 246 243 260 255 250 233 217 206 160 201 236 259 241 292 342 349 282 251 270 281 268 276 287 252 238 250 240 222 222 223 220 221 211 207 193 197 218 184 195
168 168 168 165 168 163 162 156 156 163 167 171 158 163 151 140 168 146 139 142 155 162 119 108 78 72 62 45 44 45 36 27 356 349 323 300 257 223 269 222 127 140 163 194 264 242 242 239 242 260 254 251 245 226 193 191 216 263 334 313 303 303 265 278 275 270 56 296 292 313 326 296 268 245 225 223 225 222 221 212 216 222 222 212 179
169 175 174 170 171 170 166 160 160 163 159 159 157 148 118 78 325 105 119 91 56 44 84 87 98 98 77 70 56 37 50 82 58 8 334 330 349 334 14 21 32 127 156 183 226 221 201 211 220 220 270 256 275 242 143 220 222 132 140 344 321 286 144 237 237 255 256 228 246 273 275 292 310 305 272 237 235 226 221 217 218 217 230 243 191
175 177 178 177 174 177 167 164 157 163 154 154 159 122 108 108 83 92 69 90 102 92 97 98 88 100 81 49 65 49 30 44 66 143 52 17 351 5 10 68 61 120 144 158 195 223 221 192 171 227 254 286 266 296 164 235 232 164 173 218 147 183 265 201 283 248 229 291 321 301 290 308 334 306 310 325 289 236 225 232 220 214 218 228 242
181 180 179 180 176 177 169 166 158 162 154 151 152 130 129 132 118 113 105 101 120 139 140 120 115 97 102 97 82 75 72 64 41 14 59 68 27 27 18 57 71 80 110 132 113 144 129 65 59 219 207 213 266 67 288 100 267 331 20 144 121 221 271 23 344 268 351 26 12 336 346 309 280 326 315 289 325 328 300 246 226 228 207 220 229
183 181 177 180 175 175 171 166 160 162 156 154 151 148 155 153 152 153 148 153 144 150 143 131 136 130 90 104 102 78 64 54 53 45 29 52 63 43 6 66 63 44 12 189 170 122 127 126 135 191 145 144 118 271 304 232 179 182 143 79 349 292 107 6 314 311 327 316 319 346 326 331 345 312 320 297 7 271 328 319 296 228 220 222 217
185 176 174 177 177 174 172 169 163 163 157 156 155 160 161 166 169 165 160 157 146 132 109 120 107 102 109 93 95 97 87 69 54 68 66 33 16 41 14 20 57 75 41 12 7 347 360 61 96 109 125 133 142 94 72 73 61 248 173 171 137 71 78 99 76 309 332 347 320 322 318 319 321 323 322 310 265 312 346 263 278 263 278 241 255
181 177 175 176 176 175 172 172 167 163 159 159 161 168 170 169 177 178 163 166 145 128 134 119 105 108 111 123 117 117 110 92 94 89 106 100 83 73 41 22 12 59 77 74 44 46 35 43 22 359 84 117 124 122 118 105 175 148 142 125 151 155 155 147 160 357 180 277 269 174 257 303 312 285 291 315 319 288 281 219 281 313 313 338 321
182 180 176 174 173 174 173 172 170 165 162 163 164 171 179 170 179 181 168 160 136 142 144 135 131 118 126 129 108 99 94 83 80 81 70 73 70 67 47 45 37 46 52 73 53 46 40 36 34 30 36 23 30 49 183 139 216 89 70 255 208 212 188 187 183 200 195 254 262 185 270 320 316 290 297 268 283 284 269 270 272 289 206 247 246
186 179 174 171 173 172 175 175 171 170 163 166 166 171 180 174 181 182 173 154 152 153 151 141 136 145 132 131 128 133 118 120 115 94 88 83 75 73 71 63 42 30 37 53 63 65 52 60 50 50 40 44 31 32 30 52 44 59 313 8 340 274 262 226 189 207 231 252 277 292 320 199 218 229 219 226 229 239 259 254 242 248 237 225 227
185 181 175 172 173 174 176 178 174 171 164 168 168 171 179 180 182 179 176 158 157 158 148 156 151 159 149 152 161 137 142 118 115 111 99 93 81 71 73 72 60 48 70 88 62 66 73 67 63 51 48 47 57 41 39 30 26 45 350 355 348 355 356 2 356 357 351 330 321 304 291 276 290 261 211 234 244 256 253 243 242 242 260 256 236